User: anonymous   Login
Location: Bottenau
(48.5138°N, 8.0462°E)
Time: 04:27:18
(UTC+00:00)
Language:

Cosmos 2221 - Orbit

View from above orbital plane
View from above orbital plane
View from above satellite
View from above satellite

Ground track
Ground track

The orbit data is extracted from the following two-line orbital elements,

1 22236U 92080A   21169.31254186  .00000213  00000-0  20412-4 0  9992
2 22236  82.5077 117.9274 0016398 181.6761 178.4405 14.88062016523672
Epoch (UTC): 18 June 2021 07:30:03
Eccentricity: 0.0016398
inclination: 82.5077°
perigee height: 592 km
apogee height: 615 km
right ascension of ascending node: 117.9274°
argument of perigee: 181.6761°
revolutions per day: 14.88062016
mean anomaly at epoch: 178.4405°
orbit number at epoch: 52367

The dashed part of the orbit path shows where the satellite is in the earth's shadow,  

DLR